TimeEDT,TemperatureF,Dew PointF,Humidity,Sea Level PressureIn,VisibilityMPH,Wind Direction,Wind SpeedMPH,Gust SpeedMPH,PrecipitationIn,Events,Conditions,WindDirDegrees,DateUTC
12:54 AM,55.9,51.1,84,30.30,10.0,Calm,Calm,-,N/A,,Clear,0,2011-10-06 04:54:00
1:54 AM,53.1,50.0,89,30.32,10.0,West,3.5,-,N/A,,Clear,270,2011-10-06 05:54:00
2:54 AM,52.0,48.9,89,30.32,10.0,Calm,Calm,-,N/A,,Clear,0,2011-10-06 06:54:00
3:54 AM,51.1,48.0,89,30.33,10.0,West,3.5,-,N/A,,Clear,280,2011-10-06 07:54:00
4:54 AM,51.1,46.9,86,30.33,10.0,Calm,Calm,-,N/A,,Clear,0,2011-10-06 08:54:00
5:54 AM,50.0,46.9,89,30.34,10.0,Calm,Calm,-,N/A,,Clear,0,2011-10-06 09:54:00
6:54 AM,48.9,46.9,93,30.36,10.0,Calm,Calm,-,N/A,,Clear,0,2011-10-06 10:54:00
7:54 AM,48.9,46.0,90,30.39,10.0,WNW,3.5,-,N/A,,Clear,300,2011-10-06 11:54:00
8:54 AM,55.0,48.9,80,30.40,10.0,Calm,Calm,-,N/A,,Clear,0,2011-10-06 12:54:00
9:54 AM,60.1,48.9,67,30.40,10.0,Calm,Calm,-,N/A,,Clear,0,2011-10-06 13:54:00
10:54 AM,62.1,48.0,60,30.42,10.0,Calm,Calm,-,N/A,,Clear,0,2011-10-06 14:54:00
11:54 AM,64.9,46.9,52,30.41,10.0,Variable,5.8,-,N/A,,Clear,0,2011-10-06 15:54:00
12:54 PM,66.9,46.0,47,30.39,10.0,SE,5.8,-,N/A,,Clear,140,2011-10-06 16:54:00
1:54 PM,69.1,46.9,45,30.36,10.0,SSE,5.8,-,N/A,,Clear,160,2011-10-06 17:54:00
2:54 PM,70.0,46.9,44,30.35,10.0,Variable,3.5,-,N/A,,Clear,0,2011-10-06 18:54:00
3:54 PM,71.1,48.0,44,30.34,10.0,SE,4.6,-,N/A,,Clear,130,2011-10-06 19:54:00
4:54 PM,71.1,48.9,45,30.34,10.0,East,8.1,-,N/A,,Clear,100,2011-10-06 20:54:00
5:54 PM,69.1,50.0,51,30.34,10.0,ESE,6.9,-,N/A,,Clear,120,2011-10-06 21:54:00
6:54 PM,64.9,50.0,58,30.35,10.0,SE,6.9,-,N/A,,Clear,130,2011-10-06 22:54:00
7:54 PM,64.0,50.0,60,30.36,10.0,ESE,3.5,-,N/A,,Clear,110,2011-10-06 23:54:00
8:54 PM,63.0,51.1,65,30.37,10.0,Calm,Calm,-,N/A,,Clear,0,2011-10-07 00:54:00
9:54 PM,57.9,51.1,78,30.38,10.0,Calm,Calm,-,N/A,,Clear,0,2011-10-07 01:54:00
10:54 PM,54.0,51.1,90,30.39,10.0,Calm,Calm,-,N/A,,Clear,0,2011-10-07 02:54:00
11:54 PM,54.0,50.0,86,30.40,10.0,Calm,Calm,-,N/A,,Clear,0,2011-10-07 03:54:00